Regional Weather Roundup
Issued by NWS Little Rock, AR

Home | Current Version | Previous Version | Text Only | Print | Product List | Glossary Off
Versions: 1 2 3 4 5 6 7 8 9 10 11 12 13 14 15 16 17 18 19 20 21 22 23 24 25 26 27 28 29 30 31 32 33 34 35 36 37 38 39 40 41 42 43 44 45 46 47 48 49 50

000
ASUS44 KLZK 221205
RWRLZK

WEATHER ROUNDUP FOR ARKANSAS
NATIONAL WEATHER SERVICE LITTLE ROCK AR
700 AM CDT FRI AUG 22 2014

NOTE: "FAIR" INDICATES FEW OR NO CLOUDS BELOW 12,000 FEET WITH NO
SIGNIFICANT WEATHER AND/OR OBSTRUCTIONS TO VISIBILITY.

ARZ001-003-010-029-221300-
NORTHWEST ARKANSAS

CITY           SKY/WX    TMP DP  RH WIND       PRES   REMARKS
FAYETTEVILLE   PTCLDY    76  69  79 SW7       30.05R
6HR MIN TEMP:  75; 6HR MAX TEMP:  78;

FORT SMITH     CLEAR     76  73  91 NE5       30.02R
6HR MIN TEMP:  76; 6HR MAX TEMP:  80;

HARRISON       CLEAR     75  70  84 SE5       30.05R
6HR MIN TEMP:  72; 6HR MAX TEMP:  76;

BENTONVILLE    CLEAR     75  70  83 S6        30.05R
6HR MIN TEMP:  73; 6HR MAX TEMP:  77;

ROGERS         PTCLDY    76  69  79 S10       30.06R
6HR MIN TEMP:  74; 6HR MAX TEMP:  77;

SILOAM SPGS    CLEAR     75  64  69 S9        30.05R
6HR MIN TEMP:  73; 6HR MAX TEMP:  77;

HIGHFILL       CLEAR     73  68  84 S5        30.04R
6HR MIN TEMP:  72; 6HR MAX TEMP:  75;

SPRINGDALE     PTCLDY    77  70  78 S9        30.07R
$$

ARZ004-005-016-221300-
NORTH CENTRAL ARKANSAS

CITY           SKY/WX    TMP DP  RH WIND       PRES   REMARKS
BATESVILLE     CLEAR     77  72  83 S9        30.04R
6HR MIN TEMP:  75; 6HR MAX TEMP:  81;

FLIPPIN        CLEAR     72  66  83 CALM      30.04R
6HR MIN TEMP:  72; 6HR MAX TEMP:  79;

MTN HOME       CLEAR     73  71  93 CALM      30.03R
6HR MIN TEMP:  71; 6HR MAX TEMP:  77;

$$

ARZ040-041-221300-
WEST CENTRAL ARKANSAS

CITY           SKY/WX    TMP DP  RH WIND       PRES   REMARKS
MENA           MOCLDY    81  73  78 CALM      30.08S HX  85
MOUNT IDA      MOCLDY    79  72  79 MISG      30.05R
6HR MIN TEMP:  77; 6HR MAX TEMP:  82;

$$

ARZ009-017-025-026-028-221300-
NORTHEAST ARKANSAS

CITY           SKY/WX    TMP DP  RH WIND       PRES   REMARKS
CORNING        FAIR      73  73 100 SW9       30.04R
JONESBORO      CLEAR     76  73  91 S8        30.05R
6HR MIN TEMP:  73; 6HR MAX TEMP:  77;

NEWPORT        CLEAR     76  74  93 S7        30.06R
6HR MIN TEMP:  74; 6HR MAX TEMP:  78;

WALNUT RIDGE   CLEAR     75  72  88 S8        30.03R
6HR MIN TEMP:  73; 6HR MAX TEMP:  75;

BLYTHEVILLE    CLEAR     76  75  97 SW9       30.05R
6HR MIN TEMP:  75; 6HR MAX TEMP:  77;

$$

ARZ022-023-033-042-044-221300-
CENTRAL ARKANSAS

CITY           SKY/WX    TMP DP  RH WIND       PRES   REMARKS
LITTLE ROCK    PTCLDY    76  72  87 SW6       30.06R
6HR MIN TEMP:  76; 6HR MAX TEMP:  81;

N LITTLE ROCK    N/A     75  74  95 SW6       30.06R
6HR MIN TEMP:  75; 6HR MAX TEMP:  81;

JACKSONVILLE   CLEAR     75  73  96 SE3       30.06R
6HR MIN TEMP:  75; 6HR MAX TEMP:  80;

SEARCY           N/A     75  74  97 CALM        N/A
6HR MIN TEMP:  73; 6HR MAX TEMP:  75;

HOT SPRINGS    CLEAR     77  73  87 SW5       30.08R
6HR MIN TEMP:  77; 6HR MAX TEMP:  81;

RUSSELLVILLE   CLEAR     74  72  93 CALM      30.04R FOG
6HR MIN TEMP:  74; 6HR MAX TEMP:  76;

CLINTON        FAIR      72  72 100 CALM      30.06R FOG
$$

ARZ036-221300-
EAST ARKANSAS

CITY           SKY/WX    TMP DP  RH WIND       PRES   REMARKS
WEST MEMPHIS   CLEAR     75  74  96 SW6       30.06R
6HR MIN TEMP:  74; 6HR MAX TEMP:  77;

$$

ARZ050-053-066-070-073-221300-
SOUTHWEST ARKANSAS

CITY           SKY/WX    TMP DP  RH WIND       PRES   REMARKS
ARKADELPHIA    FAIR      73  73 100 CALM      30.08R FOG
6HR MIN TEMP:  73; 6HR MAX TEMP:  78; 6HR PCP: TRACE;

CAMDEN         CLEAR     72  68  88 CALM      30.07R FOG
TEXARKANA      CLEAR     75  74  96 SW8       30.06R
6HR MIN TEMP:  75; 6HR MAX TEMP:  80;

EL DORADO      CLEAR     73  72  96 CALM      30.08R FOG
6HR MIN TEMP:  72; 6HR MAX TEMP:  75;

DE QUEEN       CLEAR     72  71  97 CALM      30.05R FOG
6HR MIN TEMP:  72; 6HR MAX TEMP:  77;

$$

ARZ056-057-069-221300-
SOUTHEAST ARKANSAS

CITY           SKY/WX    TMP DP  RH WIND       PRES   REMARKS
PINE BLUFF     CLEAR     73  71  93 SW6       30.07R
6HR MIN TEMP:  73; 6HR MAX TEMP:  77;

STUTTGART      CLEAR     73  70  88 S5        30.09R
6HR MIN TEMP:  73; 6HR MAX TEMP:  79;

MONTICELLO     CLEAR     75  71  87 SW6       30.08R
6HR MIN TEMP:  74; 6HR MAX TEMP:  78;


$$




USA.gov is the U.S. government's official web portal to all federal, state and local government web resources and services.